Location: Bear Branch Nature Center
(39.6445°N, 76.9901°W)
Time: 05:58:26
(UTC-04:00)

Daily predictions for brighter satellites

Satellite Brightness Start Highest point End
(mag) Time Altitude Azimuth Time Altitude Azimuth Time Altitude Azimuth
Terra 4.4 00:06:58 15° NW 00:06:58 15° NW 00:08:06 10° NW
Cosmos 2263 Rocket 4.4 00:21:52 10° NW 00:23:33 18° NW 00:23:33 18° NW
ATLAS CENTAUR R/B 4.4 00:55:09 66° W 00:56:41 74° NW 01:22:49 10° NE
ATLAS 3B R/B 4.1 01:08:52 35° NE 01:08:52 35° NE 01:12:52 10° NE
Cosmos 2278 Rocket 4.3 01:07:19 10° NNW 01:09:22 23° N 01:09:22 23° N
CZ-4C R/B 4.5 01:48:41 18° NE 01:48:41 18° NE 01:50:17 10° NE
Cosmos 2219 Rocket 4.2 02:05:32 21° NNW 02:05:32 21° NNW 02:07:58 10° N
SL-16 R/B 3.8 02:19:06 30° NNE 02:19:06 30° NNE 02:21:55 10° NNE
COSMOS 2455 4.5 02:19:04 28° NNW 02:19:04 28° NNW 02:22:36 10° NNE
Cosmos 2333 Rocket 4.1 02:21:46 23° NNW 02:21:46 23° NNW 02:24:39 10° N
Cosmos 2237 Rocket 4.1 02:23:22 24° NNW 02:23:22 24° NNW 02:26:10 10° N
BREEZE-M DEB (TANK) 4.1 02:40:47 72° ENE 02:40:47 72° ENE 02:44:47 10° NE
ATLAS 5 CENTAUR R/B 4.4 02:51:54 13° E 02:51:54 13° E 02:53:06 10° ENE
ATLAS 3B R/B 4.0 02:56:06 32° NW 02:56:42 32° NW 03:03:14 10° NNE
Meteor 2-3 Rocket 4.4 03:14:04 10° N 03:19:42 52° ENE 03:20:01 51° E
CZ-2D R/B 3.1 03:19:07 10° NNE 03:23:57 38° E 03:23:57 38° E
Okean O Rocket 4.4 03:23:42 10° ENE 03:24:55 11° E 03:26:07 10° ESE
Cosmos 1943 3.5 03:29:24 62° ENE 03:29:24 62° ENE 03:34:26 10° NNE
IRS-1D 4.1 03:25:55 10° NNE 03:30:40 53° E 03:30:40 53° E
CZ-4C R/B 3.4 03:33:52 32° NW 03:33:52 32° NW 03:38:55 10° NNE
Cosmos 1331 Rocket 4.4 03:34:22 10° NNW 03:38:47 60° N 03:38:47 60° N
ADEOS 4.0 03:35:01 10° N 03:39:14 57° N 03:39:14 57° N
Cosmos 2369 Rocket 2.4 03:35:09 10° NNW 03:40:46 69° ENE 03:41:29 61° ESE
ARIANE 5 R/B 2.7 03:35:34 10° NNE 03:40:24 68° ENE 03:40:24 68° ENE
USA 234 3.1 03:40:31 10° NE 03:47:06 90° N 03:47:57 70° SW
SeaSat 1 4.3 03:44:54 10° ESE 03:49:08 30° NE 03:53:24 10° N
ATLAS CENTAUR R/B 4.1 03:45:46 10° NNW 03:46:10 12° NNW 03:46:10 12° NNW
Cosmos 1455 3.7 03:51:09 35° ENE 03:51:09 35° ENE 03:54:08 10° NNE
SL-16 R/B 2.4 03:52:07 57° SSE 03:53:31 89° ENE 03:59:45 10° NNW
Resurs 1-4 Rocket 2.0 03:53:07 10° NNE 03:58:25 83° ESE 03:58:41 79° SSE
Cosmos 2242 Rocket 3.9 03:59:17 66° NNE 03:59:17 66° NNE 04:03:14 10° N
SL-16 R/B 4.3 04:00:59 13° NW 04:01:15 13° NW 04:03:51 10° NNW
Cosmos 1943 Rocket 3.2 03:58:20 10° N 04:03:46 45° ENE 04:09:09 10° SE
Cosmos 1862 Rocket 4.4 04:03:46 41° ESE 04:04:24 44° E 04:08:35 10° NNE
NOSS 3-2 (A) 4.1 04:04:36 39° WNW 04:05:30 41° NW 04:11:47 10° NNE
Cosmos 2263 4.1 04:08:57 10° NNW 04:14:46 88° WSW 04:20:33 10° SSE
Cosmos 1709 Rocket 3.9 04:08:35 10° N 04:14:57 79° W 04:17:24 40° S
Cosmos 2251 Rocket 4.2 04:15:49 39° WNW 04:15:49 39° WNW 04:20:32 10° N
ERS-2 4.1 04:16:19 10° N 04:17:59 21° NNW 04:17:59 21° NNW
CENTAUR R/B 2.8 04:19:17 37° S 04:21:41 61° ESE 04:28:19 10° NE
NOSS 3-2 (C) 4.2 04:20:58 35° WNW 04:22:29 40° NW 04:28:45 10° NNE
SL-27 R/B 3.4 04:26:50 40° SE 04:27:21 43° ESE 04:30:50 10° NNE
Cosmos 1825 4.1 04:24:39 10° NNE 04:28:02 30° ENE 04:31:23 10° SE
MOZ.5/SAFIR/RUBIN 5/SL-8 4.4 04:23:40 10° SSE 04:28:10 55° ENE 04:32:43 10° N
BREEZE-M DEB (TANK) 4.0 04:28:26 25° NNE 04:28:26 25° NNE 04:30:16 10° E
Cosmos 1733 Rocket 2.9 04:26:49 10° N 04:31:13 82° W 04:32:11 54° S
IRS-1C Rocket 4.4 04:26:45 10° NNE 04:32:01 65° ESE 04:35:13 24° S
ARGOS Delta rocket 3.6 04:29:30 10° NNE 04:33:55 81° ESE 04:35:21 43° S
ATLAS 5 CENTAUR R/B 1.9 04:33:28 52° WSW 04:34:24 65° NW 04:39:36 10° NNE
Cosmos 2074 Rocket 4.3 04:30:56 10° N 04:37:09 69° E 04:43:20 10° SSE
Cosmos 2184 Rocket 4.3 04:34:47 10° N 04:41:12 72° E 04:47:30 10° SSE
Cosmos 1862 4.1 04:37:41 10° N 04:41:34 50° E 04:45:25 10° SSE
EO 1 Del DPAF 4.1 04:43:01 34° WNW 04:43:01 34° WNW 04:45:41 10° NNW
UNKNOWN OBJECT B 3.4 04:41:10 10° N 04:44:16 38° WNW 04:44:16 38° WNW
PSLV R/B 3.5 04:47:17 55° NW 04:47:51 68° N 04:51:16 10° E
Cosmos 1869 3.5 04:50:13 46° W 04:50:32 47° W 04:54:24 10° N
CZ-4B R/B 2.8 04:53:28 10° NNE 04:57:08 75° ESE 04:59:29 22° S
Cosmos 1933 3.3 04:55:33 24° S 04:57:56 90° W 05:02:04 10° N
BREEZE-M DEB (TANK) 3.3 04:59:15 37° S 04:59:50 45° SE 05:03:42 10° ENE
Cosmos 1908 Rocket 3.5 04:55:33 10° N 04:59:58 90° SSW 05:04:18 10° S
Okean O Rocket 1.6 04:57:16 10° N 05:01:42 65° WNW 05:04:08 26° SSW
CZ-2D R/B 4.2 04:57:50 10° N 05:01:54 38° WNW 05:03:05 32° WSW
Cosmos 2221 Rocket 3.8 04:58:02 10° S 05:02:23 69° E 05:06:48 10° NNE
CZ-2D R/B 3.2 04:59:35 10° NNW 05:03:51 26° WNW 05:05:17 23° W
Cosmos 407 Rocket 4.5 05:01:29 10° S 05:06:25 46° ESE 05:11:27 10° NNE
Okean-O 3.7 05:02:33 10° NNE 05:06:48 44° E 05:11:02 10° S
SL-08 ROCKET BODY 4.3 05:00:56 10° N 05:06:58 77° W 05:13:04 10° S
Atlas Centaur 2 3.6 05:07:31 13° S 05:09:40 17° SSE 05:12:54 10° ESE
Cosmos 2285 Rocket 4.0 05:05:08 10° NNW 05:11:36 84° WSW 05:17:58 10° SSE
COSMOS 2406 3.2 05:08:58 19° SSW 05:13:15 74° WNW 05:19:02 10° NNE
Cosmos 1703 Rocket 3.5 05:12:39 12° SSW 05:16:43 73° W 05:21:12 10° N
Sich 1 Rocket 3.9 05:13:11 10° NNW 05:17:22 44° W 05:21:33 10° SSW
Cosmos 389 Rocket 3.6 05:17:29 25° W 05:17:58 26° WNW 05:20:58 10° NNW
ARIANE 5 R/B 4.3 05:16:31 10° NNW 05:19:17 15° WNW 05:20:44 13° W
Cosmos 2369 Rocket 3.8 05:21:01 10° WNW 05:23:07 14° W 05:23:07 14° W
Cosmos 1455 4.2 05:26:13 13° WNW 05:26:23 13° WNW 05:28:21 10° NW
SeaSat 1 3.0 05:22:02 10° S 05:26:32 36° WSW 05:31:04 10° NW
CZ-4B DEB 4.3 05:21:15 10° N 05:26:37 59° WNW 05:31:58 10° SSW
CZ-4B R/B 3.3 05:22:59 10° N 05:28:06 51° WNW 05:33:13 10° SW
Meteor PRIRODA 4.3 05:24:58 10° NNE 05:28:40 57° E 05:32:22 10° S
USA 234 4.4 05:23:56 10° NE 05:29:36 32° NNW 05:35:15 10° W
Geosat 4.0 05:28:27 10° NNE 05:33:29 86° WNW 05:38:31 10° SSW
USA 129 3.0 05:35:23 15° NNW 05:35:23 15° NNW 05:35:45 10° NNW
Resurs 1-4 Rocket 4.0 05:35:17 10° NW 05:37:31 13° WNW 05:39:46 10° W
SL-16 R/B 4.1 05:37:14 12° W 05:37:53 12° W 05:40:21 10° WNW
USA 116 4.3 05:33:31 10° SSE 05:38:15 89° WSW 05:43:29 10° NNW
PSLV R/B 3.5 05:33:52 10° N 05:38:15 73° WNW 05:42:36 10° SSW
COSMOS 2487 2.5 05:36:23 10° SSW 05:39:59 89° WNW 05:43:37 10° NNE
Meteor 2-10 Rocket 4.2 05:39:10 10° S 05:44:54 67° E 05:50:35 10° NNE
GPS 2-05 Rocket1 4.3 05:43:30 11° SW 05:46:07 24° SSE 05:48:50 10° ESE
Cosmos 1943 Rocket 3.2 05:42:43 10° NW 05:47:11 24° W 05:51:36 10° SSW
MOS 1 Rocket 3.9 05:47:18 10° NNE 05:51:31 54° E 05:55:42 10° S
Cosmos 1190 Rocket 4.2 05:47:02 10° SW 05:52:06 53° WNW 05:57:11 10° N
ADEOS II 2.1 05:47:24 10° N 05:52:38 69° WNW 05:57:50 10° SSW
Thor Agena Rocket 4.0 05:48:13 10° SSW 05:52:56 37° W 05:57:44 10° NNW
Okean 2 Rocket 3.4 05:50:38 10° NNW 05:54:57 46° W 05:59:15 10° SSW
Okean 1-7 3.5 05:51:13 10° SSW 05:55:17 41° WNW 05:59:24 10° N
Cosmos 1408 4.1 05:53:00 10° NW 05:55:42 19° W 05:58:23 10° SW
Meteor 1-31 Rocket 2.7 05:58:23 10° N 06:02:13 86° W 06:06:01 10° SSW
CZ-4B R/B 4.2 05:57:41 10° NNE 06:02:14 88° ESE 06:06:40 10° SSW
Aureole 3 Rocket 4.5 05:56:27 10° SSW 06:03:01 38° W 06:07:53 10° NNW
Cosmos 1825 3.9 06:01:05 10° NW 06:03:22 15° W 06:05:39 10° SW
Centaur D-1A AC-31 3.1 06:00:04 10° WSW 06:06:02 22° SSW 06:09:05 10° SSE
ADEOS Rocket 3.8 05:58:35 10° N 06:06:06 57° WNW 06:13:36 10° SW
Cosmos 2181 Rocket 4.1 06:02:29 10° SSW 06:08:53 68° W 06:15:17 10° N
